This demonstration page uses our WeatherBlox Daily Observations layout. Learn more.

Left ArrowRight Arrow

36.17497, -115.13722

Hourly Observations for January 3, 2021

Temp ( °F °C ) Dew Point ( °F °C ) Humidity (%) Winds ( mph kmh ) Pressure ( in mb ) Visibility ( mi km ) Precip ( " mm )
12:53 am 00:53 Clear 42 5.6 21 -6.1 43 43 NNW 9 15 30.22 1024 10 16 N/A
1:53 am 01:53 Clear 42 5.6 20 -6.7 41 41 NW 6 9 30.22 1023 10 16 N/A
2:53 am 02:53 Clear 40 4.4 21 -6.1 47 47 N N/A 30.20 1023 10 16 N/A
3:53 am 03:53 Clear 38 3.3 20 -6.7 48 48 N 3 6 30.21 1023 10 16 N/A
4:53 am 04:53 Clear 39 3.9 21 -6.1 48 48 N N/A 30.22 1023 10 16 N/A
5:53 am 05:53 Clear 38 3.3 22 -5.6 52 52 N N/A 30.23 1024 10 16 N/A
6:53 am 06:53 Sunny 39 3.9 22 -5.6 50 50 SW 3 6 30.25 1024 10 16 N/A
7:53 am 07:53 Sunny 41 5 23 -5 49 49 NW 3 6 30.28 1025 10 16 N/A
8:53 am 08:53 Sunny 47 8.3 23 -5 39 39 NNE 5 7 30.29 1026 10 16 N/A
9:53 am 09:53 Sunny 48 8.9 23 -5 37 37 SE 3 6 30.30 1026 10 16 N/A
10:53 am 10:53 Sunny 51 10.6 23 -5 33 33 VRB 3 6 30.26 1025 10 16 N/A
11:53 am 11:53 Sunny 53 11.7 23 -5 31 31 S 5 7 30.22 1024 10 16 N/A
12:53 pm 12:53 Sunny 55 12.8 22 -5.6 28 28 N N/A 30.18 1022 10 16 N/A
1:53 pm 13:53 Sunny 56 13.3 22 -5.6 27 27 VRB 3 6 30.18 1022 10 16 N/A
2:53 pm 14:53 Sunny 56 13.3 22 -5.6 27 27 SE 3 6 30.19 1023 10 16 N/A
3:53 pm 15:53 Sunny 56 13.3 21 -6.1 26 26 E 3 6 30.20 1023 10 16 N/A
4:53 pm 16:53 Clear 54 12.2 21 -6.1 28 28 N N/A 30.20 1023 10 16 N/A
5:53 pm 17:53 Clear 53 11.7 22 -5.6 30 30 W 3 6 30.22 1024 10 16 N/A
6:53 pm 18:53 Clear 49 9.4 23 -5 36 36 WNW 5 7 30.23 1024 10 16 N/A
7:53 pm 19:53 Clear 47 8.3 24 -4.4 41 41 N N/A 30.24 1024 10 16 N/A
8:53 pm 20:53 Clear 45 7.2 24 -4.4 44 44 NNW 7 11 30.24 1024 10 16 N/A
9:53 pm 21:53 Clear 47 8.3 23 -5 39 39 WNW 6 9 30.23 1024 10 16 N/A
10:53 pm 22:53 Clear 46 7.8 23 -5 40 40 NW 5 7 30.23 1024 10 16 N/A
11:53 pm 23:53 Clear 45 7.2 23 -5 42 42 N N/A 30.23 1024 10 16 N/A

Powered by AerisWeather